TimeCST,TemperatureF,Dew PointF,Humidity,Sea Level PressureIn,VisibilityMPH,Wind Direction,Wind SpeedMPH,Gust SpeedMPH,PrecipitationIn,Events,Conditions,WindDirDegrees,DateUTC
12:51 AM,19.0,10.9,71,30.33,10.0,SE,5.8,-,N/A,,Clear,130,2013-01-14 06:51:00
1:51 AM,18.0,10.9,74,30.32,10.0,ESE,6.9,-,N/A,,Clear,120,2013-01-14 07:51:00
2:51 AM,19.0,10.9,71,30.33,10.0,Calm,Calm,-,N/A,,Clear,0,2013-01-14 08:51:00
3:51 AM,19.0,10.9,71,30.35,10.0,ESE,6.9,-,N/A,,Clear,120,2013-01-14 09:51:00
4:51 AM,19.9,10.9,68,30.34,10.0,SE,8.1,-,N/A,,Clear,140,2013-01-14 10:51:00
5:51 AM,19.0,10.0,68,30.36,10.0,SSE,4.6,-,N/A,,Clear,150,2013-01-14 11:51:00
6:51 AM,18.0,10.9,74,30.37,10.0,Variable,3.5,-,N/A,,Clear,0,2013-01-14 12:51:00
7:51 AM,17.1,10.0,74,30.38,10.0,ESE,5.8,-,N/A,,Clear,120,2013-01-14 13:51:00
8:51 AM,18.0,10.0,71,30.39,10.0,Calm,Calm,-,N/A,,Clear,0,2013-01-14 14:51:00
9:51 AM,21.0,9.0,60,30.38,10.0,ENE,4.6,-,N/A,,Clear,70,2013-01-14 15:51:00
10:51 AM,23.0,9.0,55,30.36,10.0,East,5.8,-,N/A,,Clear,90,2013-01-14 16:51:00
11:51 AM,25.0,9.0,51,30.35,-9999.0,North,-9999.0,-,N/A,,Clear,0,2013-01-14 17:51:00
12:51 PM,26.1,10.0,51,30.30,-9999.0,SSE,4.6,-,N/A,,Clear,160,2013-01-14 18:51:00
1:51 PM,28.0,8.1,43,30.27,10.0,ENE,5.8,-,N/A,,Mostly Cloudy,60,2013-01-14 19:51:00
2:51 PM,28.0,9.0,45,30.26,10.0,SE,9.2,-,N/A,,Overcast,130,2013-01-14 20:51:00
3:51 PM,28.9,9.0,43,30.26,10.0,ESE,9.2,-,N/A,,Overcast,120,2013-01-14 21:51:00
4:51 PM,28.9,9.0,43,30.25,10.0,ESE,6.9,-,N/A,,Overcast,120,2013-01-14 22:51:00
5:51 PM,28.0,9.0,45,30.26,10.0,SE,8.1,-,N/A,,Overcast,140,2013-01-14 23:51:00
6:51 PM,27.0,10.9,51,30.28,10.0,ESE,5.8,-,N/A,,Overcast,120,2013-01-15 00:51:00
7:51 PM,27.0,12.0,53,30.30,10.0,SE,5.8,-,N/A,,Overcast,130,2013-01-15 01:51:00
8:51 PM,27.0,12.0,53,30.29,10.0,Calm,Calm,-,N/A,,Overcast,0,2013-01-15 02:51:00
9:51 PM,27.0,12.0,53,30.28,10.0,South,5.8,-,N/A,,Overcast,170,2013-01-15 03:51:00
10:51 PM,26.1,12.0,55,30.29,10.0,Calm,Calm,-,N/A,,Overcast,0,2013-01-15 04:51:00
11:51 PM,26.1,12.0,55,30.27,10.0,Calm,Calm,-,N/A,,Overcast,0,2013-01-15 05:51:00